FW2110 Weather Reports


time (UTC)temp
C
wind
direction
speed
KPH
gust
KPH
rain 1hr
cm
rain 24hr
cm
rain mn
cm
humidity
%
barometer
mb
20260906193003 37 188 0.0 14.5 0.00 0.00 0.00 21 1011.3
20260906191503 37 182 0.0 4.8 0.00 0.00 0.00 21 1011.5
20260906190002 37 182 0.0 9.7 0.00 0.00 0.00 22 1011.8
20260906184500 37 189 1.6 6.4 0.00 0.00 0.00 22 1012.1
20260906183100 37 194 0.0 8.0 0.00 0.00 0.00 22 1012.3
20260906183001 37 194 0.0 8.0 0.00 0.00 0.00 22 1012.2
20260906181558 37 196 0.0 4.8 0.00 0.00 0.00 23 1012.7
20260906180117 37 201 0.0 14.5 0.00 0.00 0.00 23 1013.1
20260906174602 36 228 0.0 8.0 0.00 0.00 0.00 25 1013.3
20260906173058 36 228 4.8 11.3 0.00 0.00 0.00 24 1013.5
20260906171548 36 228 0.0 4.8 0.00 0.00 0.00 25 1013.8
20260906170046 35 228 0.0 8.0 0.00 0.00 0.00 27 1014.0
20260906164540 35 228 4.8 11.3 0.00 0.00 0.00 28 1014.1
20260906163035 35 218 0.0 3.2 0.00 0.00 0.00 30 1014.2
20260906161532 33 218 0.0 8.0 0.00 0.00 0.00 30 1014.3
20260906160032 34 218 1.6 6.4 0.00 0.00 0.00 29 1014.0
20260906154530 34 205 0.0 6.4 0.00 0.00 0.00 30 1014.0
20260906153031 33 199 0.0 6.4 0.00 0.00 0.00 31 1013.8
20260906151513 32 200 1.6 8.0 0.00 0.00 0.00 33 1013.8
20260906150019 32 186 1.6 8.0 0.00 0.00 0.00 33 1013.8
20260906144507 31 186 0.0 4.8 0.00 0.00 0.00 37 1013.7
20260906143003 30 186 0.0 6.4 0.00 0.00 0.00 40 1013.7
20260906141503 30 186 1.6 8.0 0.00 0.00 0.00 41 1013.7
20260906140002 30 186 0.0 6.4 0.00 0.00 0.00 41 1013.7
20260906134502 28 186 0.0 3.2 0.00 0.00 0.00 43 1013.6
20260906133109 28 186 0.0 4.8 0.00 0.00 0.00 45 1013.6
20260906131559 26 186 0.0 1.6 0.00 0.00 0.00 49 1013.5
20260906130058 26 186 0.0 1.6 0.00 0.00 0.00 51 1013.2
20260906124555 25 186 0.0 3.2 0.00 0.00 0.00 51 1013.1
20260906123058 25 186 0.0 4.8 0.00 0.00 0.00 52 1012.8
20260906121552 25 186 0.0 0.0 0.00 0.00 0.00 51 1012.6
20260906120052 25 186 0.0 1.6 0.00 0.00 0.00 51 1012.5
20260906114549 25 186 0.0 3.2 0.00 0.00 0.00 51 1012.4
20260906113047 25 186 0.0 1.6 0.00 0.00 0.00 52 1012.2
20260906111547 25 186 0.0 0.0 0.00 0.00 0.00 51 1012.0
20260906110051 26 186 0.0 0.0 0.00 0.00 0.00 49 1012.1
20260906104540 26 186 0.0 0.0 0.00 0.00 0.00 48 1012.1
20260906103055 26 186 0.0 0.0 0.00 0.00 0.00 47 1011.9
20260906101538 27 186 0.0 1.6 0.00 0.00 0.00 47 1012.1
20260906100036 27 186 0.0 3.2 0.00 0.00 0.00 47 1011.9
20260906094535 27 186 0.0 4.8 0.00 0.00 0.00 45 1011.9
20260906093038 27 186 0.0 3.2 0.00 0.00 0.00 45 1011.8
20260906091532 27 186 0.0 1.6 0.00 0.00 0.00 46 1011.8
20260906090050 27 186 0.0 3.2 0.00 0.00 0.00 45 1011.7
20260906084528 27 186 0.0 3.2 0.00 0.00 0.00 45 1011.7
20260906083033 27 186 1.6 4.8 0.00 0.00 0.00 44 1011.5
20260906081526 28 186 1.6 3.2 0.00 0.00 0.00 44 1011.6
20260906080023 28 186 0.0 3.2 0.00 0.00 0.00 42 1011.5
20260906074522 28 186 0.0 3.2 0.00 0.00 0.00 42 1011.5
20260906073020 28 186 0.0 3.2 0.00 0.00 0.00 41 1011.5
20260906071520 28 186 0.0 6.4 0.00 0.00 0.00 40 1011.3
20260906070019 28 186 1.6 4.8 0.00 0.00 0.00 41 1011.3
20260906064517 28 186 3.2 6.4 0.00 0.00 0.00 40 1011.3
20260906063028 29 186 1.6 4.8 0.00 0.00 0.00 40 1011.3
20260906061518 29 186 3.2 6.4 0.00 0.00 0.00 40 1011.3
20260906060014 29 186 3.2 6.4 0.00 0.00 0.00 39 1011.5
20260906054511 30 186 1.6 6.4 0.00 0.00 0.00 38 1011.4
20260906053008 30 186 1.6 6.4 0.00 0.00 0.00 37 1011.4
20260906051507 30 186 3.2 6.4 0.00 0.00 0.00 36 1011.4
20260906050006 31 186 3.2 6.4 0.00 0.00 0.00 36 1011.4
20260906044503 31 186 0.0 6.4 0.00 0.00 0.00 36 1011.3
20260906043003 31 186 1.6 4.8 0.00 0.00 0.00 35 1011.3
20260906041503 31 186 1.6 6.4 0.00 0.00 0.00 34 1011.4
20260906040004 31 186 3.2 6.4 0.00 0.00 0.00 34 1011.3
20260906034502 32 186 1.6 4.8 0.00 0.00 0.00 34 1011.0
20260906033102 32 186 0.0 4.8 0.00 0.00 0.00 33 1010.8
20260906031601 32 186 3.2 9.7 0.00 0.00 0.00 32 1011.1
20260906030100 32 188 1.6 9.7 0.00 0.00 0.00 32 1010.9
20260906024559 32 190 0.0 3.2 0.00 0.00 0.00 33 1010.9
20260906023059 32 190 0.0 3.2 0.00 0.00 0.00 32 1010.5
20260906021603 32 190 0.0 3.2 0.00 0.00 0.00 31 1010.4
20260906020105 33 190 0.0 3.2 0.00 0.00 0.00 31 1010.1
20260906014557 33 190 0.0 1.6 0.00 0.00 0.00 30 1010.0
20260906013105 33 190 0.0 0.0 0.00 0.00 0.00 29 1009.9
20260906011556 33 190 0.0 1.6 0.00 0.00 0.00 28 1009.7
20260906010056 34 190 0.0 6.4 0.00 0.00 0.00 28 1009.7
20260906004558 35 190 1.6 11.3 0.00 0.00 0.00 27 1009.5
20260906003054 35 191 0.0 8.0 0.00 0.00 0.00 26 1009.4
20260906001553 35 192 1.6 11.3 0.00 0.00 0.00 25 1009.4
20260906000104 36 192 0.0 17.7 0.00 0.00 0.00 25 1009.6
20260905234608 36 155 6.4 16.1 0.00 0.00 0.00 23 1009.6
20260905233051 36 204 1.6 22.5 0.00 0.00 0.00 22 1009.6
20260905231554 37 202 6.4 22.5 0.00 0.00 0.00 21 1009.6
20260905230054 37 192 6.4 19.3 0.00 0.00 0.00 21 1009.6
20260905224552 37 177 6.4 25.7 0.00 0.00 0.00 21 1009.7
20260905223051 38 198 12.9 25.7 0.00 0.00 0.00 20 1009.5
20260905221554 38 165 3.2 14.5 0.00 0.00 0.00 19 1009.7
20260905220050 38 194 4.8 19.3 0.00 0.00 0.00 20 1009.6
20260905214547 38 150 9.7 22.5 0.00 0.00 0.00 20 1009.5
20260905213045 38 234 9.7 24.1 0.00 0.00 0.00 21 1009.5
20260905211544 37 198 4.8 29.0 0.00 0.00 0.00 22 1009.6
20260905210054 37 166 3.2 16.1 0.00 0.00 0.00 23 1009.9
20260905204540 37 186 1.6 9.7 0.00 0.00 0.00 22 1010.1
20260905203052 38 190 3.2 30.6 0.00 0.00 0.00 23 1010.4
20260905201535 38 213 6.4 25.7 0.00 0.00 0.00 23 1010.6
20260905200033 38 194 1.6 11.3 0.00 0.00 0.00 24 1010.8
20260905194532 37 224 8.0 30.6 0.00 0.00 0.00 24 1010.9